Regional Weather Roundup
Issued by NWS

Home | Current Version | Previous Version | Graphics & Text | Print | Product List | Glossary Off
Versions: 1 2 3 4 5 6 7 8 9 10 11 12 13 14 15 16 17 18 19 20 21 22 23 24 25 26 27 28 29 30 31 32 33 34 35 36 37 38 39 40 41 42 43 44 45 46 47 48 49 50

000
ASUS43 KTOP 271408
RWRKS

WEATHER ROUNDUP FOR KANSAS
NATIONAL WEATHER SERVICE GOODLAND KS
900 AM CDT MON JUL 27 2015

NOTE:  "FAIR" INDICATES FEW OR NO CLOUDS BELOW 12,000 FEET WITH NO
SIGNIFICANT WEATHER AND/OR OBSTRUCTIONS TO VISIBILITY.

KSZ001>006-013>018-027>032-041>047-271500-
NORTHWEST KANSAS

CITY           SKY/WX    TMP DP  RH WIND       PRES   REMARKS
GOODLAND       MOSUNNY   69  66  90 S17       29.93F
HAYS           PTSUNNY   73  61  64 S16G33    29.90R
HILL CITY      MOSUNNY   75  67  76 S6        29.91R
RUSSELL        PTSUNNY   74  69  85 S13       29.89R
$$

KSZ061>065-074>080-084>089-271500-
SOUTHWEST KANSAS

CITY           SKY/WX    TMP DP  RH WIND       PRES   REMARKS
DODGE CITY     MOSUNNY   74  64  71 S16       29.97S
ELKHART          N/A     73  63  71 SE13        N/A
GARDEN CITY    SUNNY     73  65  75 S13       29.95S
GREAT BEND     MOSUNNY   75  66  73 SW13      29.92R
LIBERAL        SUNNY     75  64  69 SE15      29.98S
PRATT          PTSUNNY   75  63  64 S8        29.96R
$$

KSZ066>073-081>083-090>101-271500-
SOUTHEAST KANSAS

CITY           SKY/WX    TMP DP  RH WIND       PRES   REMARKS
CHANUTE        PTSUNNY   79  76  90 SW6       29.95S
COFFEYVILLE    MOSUNNY   85  76  74 S8        29.94S
HUTCHINSON     PTSUNNY   78  69  73 SE10      29.91S
MEDICINE LODGE   N/A     78  68  71 SE7       29.95R
NEWTON         CLOUDY    79  64  61 SE8       29.94S
PARSONS        PTSUNNY   82  78  88 S8        29.96R
WICHITA INTL   PTSUNNY   80  69  69 SE8       29.93R
WICHITA JABRA  PTSUNNY   81  68  64 SE7       29.94R
WICHITA MCCONL PTSUNNY   80  69  70 SE9       29.94R
WINFIELD       PTSUNNY   80  72  76 S8        29.95R
$$

KSZ007>012-019>026-033>040-048>060-102>105-271500-
NORTHEAST KANSAS

CITY           SKY/WX    TMP DP  RH WIND       PRES   REMARKS
CONCORDIA      CLOUDY    74  70  87 S7        29.87R
EMPORIA        PTSUNNY   81  69  67 VRB5      29.93S
LAWRENCE       PTSUNNY   82  74  76 SE6       29.92R
MANHATTAN      CLOUDY    78  69  73 E7        29.83F
MARYSVILLE     CLOUDY    75  72  88 E5        29.90R
OLATHE IND     PTSUNNY   81  74  79 S8        29.95R
OLATHE EXE     PTSUNNY   79  74  84 S8        29.94R
SALINA         CLOUDY    76  69  79 CALM      29.87R
TOPEKA BILLARD PTSUNNY   80  74  81 E5        29.91R
TOPEKA FORBES  PTSUNNY   81  73  76 S6        29.92S
$$


USA.gov is the U.S. government's official web portal to all federal, state and local government web resources and services.